When you browse on this site, cookies collect data to enhance your experience and personalize the content and advertising you see.
Visit our Privacy Policy to learn more. By continuing to use the site, you agree to this use of cookies and data.
  • In Latvia
  • List of Countries
  • For 7 days
  • Water Temperature
  • Weather Map
  • Weather Widgets
  • user-avatar
    Login

    Hourly Weather Glasgow

    Today, 19 September, Thursday

    Time Temperature Precipitation Wind Pressure Humidity
    00:00 +12°C° 0 mm 2 mps 770 mmHg 92%
    01:00 +12°C° 0 mm 2 mps 770 mmHg 92%
    02:00 +12°C° 0 mm 2 mps 770 mmHg 91%
    03:00 +12°C° 0 mm 2 mps 770 mmHg 91%
    04:00 +12°C° 0 mm 1 mps 770 mmHg 91%
    05:00 +12°C° 0 mm 1 mps 770 mmHg 91%
    06:00 +12°C° 0 mm 1 mps 770 mmHg 91%
    07:00 +13°C° 0 mm 1 mps 770 mmHg 87%
    08:00 +15°C° 0 mm 1 mps 770 mmHg 84%
    09:00 +16°C° 0 mm 1 mps 770 mmHg 80%
    10:00 +18°C° 0 mm 1 mps 770 mmHg 76%
    11:00 +18°C° 0 mm 2 mps 770 mmHg 73%
    12:00 +19°C° 0 mm 2 mps 770 mmHg 69%
    13:00 +19°C° 0 mm 3 mps 770 mmHg 70%
    14:00 +19°C° 0 mm 3 mps 770 mmHg 71%
    15:00 +19°C° 0 mm 4 mps 770 mmHg 71%
    16:00 +18°C° 0 mm 3 mps 769 mmHg 77%
    17:00 +17°C° 0 mm 3 mps 769 mmHg 82%
    18:00 +14°C° 0 mm 3 mps 769 mmHg 88%
    19:00 +14°C° 0 mm 3 mps 769 mmHg 89%
    20:00 +13°C° 0 mm 3 mps 769 mmHg 90%
    21:00 +13°C° 0 mm 3 mps 769 mmHg 92%
    22:00 +13°C° 0 mm 3 mps 769 mmHg 92%
    23:00 +13°C° 0 mm 2 mps 769 mmHg 91%

    Tomorrow, 20 September, Friday

    Time Temperature Precipitation Wind Pressure Humidity
    00:00 +13°C° 0 mm 2 mps 769 mmHg 91%
    01:00 +13°C° 0 mm 2 mps 768 mmHg 91%
    02:00 +13°C° 0 mm 2 mps 768 mmHg 91%
    03:00 +12°C° 0 mm 2 mps 768 mmHg 90%
    04:00 +12°C° 0 mm 2 mps 767 mmHg 90%
    05:00 +12°C° 0 mm 2 mps 767 mmHg 89%
    06:00 +10°C° 0 mm 2 mps 767 mmHg 88%
    07:00 +13°C° 0 mm 2 mps 767 mmHg 83%
    08:00 +15°C° 0 mm 2 mps 767 mmHg 78%
    09:00 +17°C° 0 mm 2 mps 767 mmHg 73%
    10:00 +18°C° 0 mm 3 mps 766 mmHg 70%
    11:00 +19°C° 0 mm 4 mps 766 mmHg 68%
    12:00 +20°C° 0 mm 4 mps 766 mmHg 65%
    13:00 +20°C° 0 mm 5 mps 765 mmHg 67%
    14:00 +20°C° 0 mm 5 mps 765 mmHg 69%
    15:00 +20°C° 0 mm 5 mps 764 mmHg 70%
    16:00 +17°C° 0 mm 5 mps 764 mmHg 77%
    17:00 +16°C° 0 mm 5 mps 764 mmHg 83%
    18:00 +14°C° 0 mm 5 mps 763 mmHg 90%
    19:00 +13°C° 0 mm 4 mps 763 mmHg 91%
    20:00 +12°C° 0 mm 4 mps 763 mmHg 93%
    21:00 +12°C° 0 mm 4 mps 763 mmHg 94%
    22:00 +12°C° 0 mm 4 mps 763 mmHg 94%
    23:00 +12°C° 0 mm 5 mps 762 mmHg 95%

    Day after tomorrow, 21 September, Saturday

    Time Temperature Precipitation Wind Pressure Humidity
    00:00 +12°C° 0 mm 5 mps 762 mmHg 95%
    01:00 +12°C° 0 mm 5 mps 762 mmHg 95%
    02:00 +10°C° 0 mm 5 mps 761 mmHg 95%
    03:00 +10°C° 0 mm 6 mps 761 mmHg 95%
    04:00 +10°C° 0 mm 6 mps 761 mmHg 95%
    05:00 +10°C° 0 mm 6 mps 761 mmHg 96%
    06:00 +10°C° 0 mm 5 mps 760 mmHg 96%
    07:00 +11°C° 0 mm 6 mps 760 mmHg 94%
    08:00 +13°C° 0 mm 6 mps 760 mmHg 92%
    09:00 +14°C° 0 mm 6 mps 760 mmHg 90%
    10:00 +14°C° 0 mm 6 mps 759 mmHg 87%
    11:00 +15°C° 0 mm 6 mps 759 mmHg 84%
    12:00 +15°C° 0 mm 7 mps 759 mmHg 81%
    13:00 +15°C° 0 mm 7 mps 758 mmHg 82%
    14:00 +15°C° 0 mm 7 mps 757 mmHg 82%
    15:00 +15°C° 0 mm 7 mps 757 mmHg 83%
    16:00 +14°C° 0 mm 7 mps 756 mmHg 87%
    17:00 +13°C° 0 mm 6 mps 756 mmHg 90%
    18:00 +11°C° 0 mm 6 mps 756 mmHg 94%
    19:00 +11°C° 0 mm 6 mps 756 mmHg 95%
    20:00 +11°C° 0 mm 6 mps 755 mmHg 95%
    21:00 +10°C° 0 mm 6 mps 755 mmHg 96%
    22:00 +10°C° 0 mm 5 mps 755 mmHg 97%
    23:00 +10°C° 0 mm 5 mps 754 mmHg 97%

    22 September, Sunday

    Time Temperature Precipitation Wind Pressure Humidity
    00:00 +10°C° 0 mm 5 mps 754 mmHg 97%
    01:00 +11°C° 0 mm 4 mps 754 mmHg 97%
    02:00 +11°C° 0 mm 4 mps 753 mmHg 98%
    03:00 +11°C° 0 mm 4 mps 753 mmHg 98%
    04:00 +11°C° 0 mm 4 mps 753 mmHg 98%
    05:00 +11°C° 0 mm 4 mps 752 mmHg 98%
    06:00 +11°C° 0 mm 3 mps 752 mmHg 98%
    07:00 +12°C° 0 mm 3 mps 752 mmHg 95%
    08:00 +13°C° 0 mm 4 mps 752 mmHg 92%
    09:00 +14°C° 0 mm 4 mps 752 mmHg 89%
    10:00 +15°C° 0 mm 4 mps 752 mmHg 86%
    11:00 +17°C° 0 mm 4 mps 751 mmHg 84%
    12:00 +18°C° 0 mm 4 mps 751 mmHg 81%
    13:00 +18°C° 0 mm 4 mps 751 mmHg 82%
    14:00 +17°C° 0 mm 4 mps 750 mmHg 83%
    15:00 +17°C° 0 mm 4 mps 750 mmHg 85%
    16:00 +15°C° 0 mm 4 mps 750 mmHg 88%
    17:00 +14°C° 0 mm 4 mps 750 mmHg 92%
    18:00 +13°C° 0 mm 4 mps 750 mmHg 96%
    19:00 +13°C° 0 mm 3 mps 750 mmHg 97%
    20:00 +13°C° 0 mm 3 mps 750 mmHg 97%
    21:00 +13°C° 0 mm 3 mps 750 mmHg 98%
    22:00 +13°C° 0 mm 3 mps 750 mmHg 98%
    23:00 +13°C° 0 mm 3 mps 750 mmHg 98%

    23 September, Monday

    Time Temperature Precipitation Wind Pressure Humidity
    00:00 +14°C° 0 mm 3 mps 750 mmHg 98%
    01:00 +15°C° 0.2 mm 2 mps 750 mmHg 98%
    02:00 +15°C° 0.2 mm 2 mps 750 mmHg 98%
    03:00 +15°C° 0.2 mm 1 mps 750 mmHg 99%
    04:00 +15°C° 0 mm 1 mps 751 mmHg 98%
    05:00 +15°C° 0 mm 1 mps 751 mmHg 98%
    06:00 +15°C° 0 mm 2 mps 751 mmHg 98%
    07:00 +16°C° 0 mm 2 mps 751 mmHg 95%
    08:00 +16°C° 0 mm 3 mps 751 mmHg 93%
    09:00 +17°C° 0 mm 3 mps 752 mmHg 91%
    10:00 +18°C° 0 mm 4 mps 752 mmHg 86%
    11:00 +18°C° 0 mm 4 mps 752 mmHg 81%
    12:00 +19°C° 0 mm 5 mps 752 mmHg 76%
    13:00 +19°C° 0 mm 4 mps 752 mmHg 75%
    14:00 +18°C° 0 mm 4 mps 752 mmHg 75%
    15:00 +18°C° 0 mm 4 mps 752 mmHg 75%
    16:00 +17°C° 0 mm 4 mps 752 mmHg 80%
    17:00 +14°C° 0 mm 3 mps 752 mmHg 86%
    18:00 +13°C° 0 mm 3 mps 752 mmHg 91%
    19:00 +13°C° 0 mm 3 mps 753 mmHg 93%
    20:00 +12°C° 0 mm 3 mps 753 mmHg 94%
    21:00 +11°C° 0 mm 3 mps 753 mmHg 96%
    22:00 +11°C° 0 mm 3 mps 753 mmHg 96%
    23:00 +11°C° 0 mm 3 mps 753 mmHg 97%

    24 September, Tuesday

    Time Temperature Precipitation Wind Pressure Humidity
    00:00 +11°C° 0 mm 3 mps 753 mmHg 97%
    01:00 +11°C° 0 mm 3 mps 753 mmHg 97%
    02:00 +11°C° 0 mm 3 mps 753 mmHg 97%
    03:00 +11°C° 0 mm 3 mps 752 mmHg 97%
    04:00 +10°C° 0 mm 3 mps 752 mmHg 96%
    05:00 +10°C° 0 mm 3 mps 752 mmHg 95%
    06:00 +10°C° 0 mm 4 mps 752 mmHg 95%
    07:00 +11°C° 0 mm 4 mps 752 mmHg 92%
    08:00 +12°C° 0 mm 5 mps 751 mmHg 89%
    09:00 +14°C° 0 mm 6 mps 751 mmHg 86%
    10:00 +13°C° 0.2 mm 6 mps 751 mmHg 89%
    11:00 +13°C° 0.2 mm 6 mps 750 mmHg 92%
    12:00 +13°C° 0.2 mm 6 mps 750 mmHg 94%
    13:00 +13°C° 0.3 mm 6 mps 750 mmHg 95%
    14:00 +12°C° 0.3 mm 7 mps 749 mmHg 96%
    15:00 +12°C° 0.3 mm 7 mps 748 mmHg 96%
    16:00 +12°C° 0.3 mm 7 mps 748 mmHg 97%
    17:00 +12°C° 0.3 mm 7 mps 748 mmHg 97%
    18:00 +12°C° 0.3 mm 7 mps 747 mmHg 98%
    19:00 +12°C° 0.5 mm 7 mps 747 mmHg 98%
    20:00 +12°C° 0.5 mm 7 mps 747 mmHg 98%
    21:00 +12°C° 0.5 mm 7 mps 747 mmHg 98%
    22:00 +12°C° 0.9 mm 7 mps 746 mmHg 98%
    23:00 +12°C° 0.9 mm 7 mps 746 mmHg 98%
    Show more